Weather WX

World > North America > United States > California

Oakland, California Regional Weather

Lat: 37.77N, Lon: 122.22W
Wx Zone: CAZ508
Feedback

Oakland, CA Regional Weather

Expires:201907190900;;291206
ASUS46 KSTO 190815
RWRCA 

NORTHERN AND CENTRAL CA REGIONAL WEATHER ROUNDUP
NATIONAL WEATHER SERVICE SACRAMENTO CA 
100 AM PDT FRI JUL 19 2019

NOTE: FAIR INDICATES FEW OR NO CLOUDS BELOW 12,000 FEET WITH NO
SIGNIFICANT WEATHER AND/OR OBSTRUCTIONS TO VISIBILITY.


CAZ006-505>513-190900-
BAY AREA
  
CITY           SKY/WX    TMP DP  RH WIND       PRES   REMARKS
SANTA ROSA     CLOUDY    56  53  90 S5        29.87F                  
SAN RAFAEL     N/A      MM  MM  MM MISG
NAPA           CLOUDY    59  56  89 S14       29.88R                  
CONCORD        FAIR      62  54  74 S13       29.86F                  
OAKLAND CITY   N/A       60  MM  MM MISG
OAKLAND        MOCLDY    62  55  77 W8        29.90S                  
SAN FRAN CITY  N/A       58  MM  84 MISG
SAN FRAN ARPT  FAIR      61  54  77 CALM      29.88F                  
LIVERMORE      FAIR      60  56  86 NW10      29.87S                  
HAYWARD        CLOUDY    61  56  83 NW6       29.89S                  
REDWOOD CITY   N/A       64  MM  84 MISG
MOFFETT ARPT   FAIR      63  58  83 N5        29.89F                  
SAN JOSE ARPT  FAIR      62  56  80 SE13      29.89S                  
$$

SKY/WX - Weather  TMP - Temperature  DP - Dew Point  RH - Relative Humidity
WIND - Wind Direction/Speed PRES - Barometric Pressure VSB - Visibility
WCI - Wind Chill Index E13G22 Wind - East Wind 13 mph/Gusts of 22 mph